Location: �chenoz-la-M�line
(47.6009°N, 6.1354°E)
Time: 03:37:55
(UTC+00:00)

Cosmos 2098 Rocket - Pass Details

Date: 27 January 2021
Orbit: 366 x 1182 km, 82.9° (Epoch: 27 February)

Event Time Altitude Azimuth Distance (km) Brightness Sun altitude
Rises 04:45:14 0° 354° (N) 3,655 6.9 -24.0°
Reaches altitude 10° 04:48:05 10° 359° (N) 2,575 6.2 -23.5°
Maximum altitude 04:53:41 48° 74° (ENE) 978 4.4 -22.6°
Drops below altitude 10° 04:58:06 10° 149° (SSE) 2,031 6.1 -21.8°
Sets 05:00:08 0° 155° (SSE) 2,816 6.8 -21.5°
